Overview Statistics Trail Chart Weather Telemetry Raw packets
 

This is the latest recevied weather packets stored in our database for station/object KJ5PEC-13. If no packets are shown the sender has not sent any weather packets the latest 10 day(s).

<< 1 2 3 4 5 6 7 >>
Time Temp. Humidity Pressure Rain* Wind** Luminosity Snow
1788556939 27.78° C 21% 1028.1 hPa 0 mm - 400 W/m² -
1788556639 27.22° C 22% 1028.1 hPa 0 mm - 782 W/m² -
1788556334 27.22° C 22% 1028.1 hPa 0 mm - 763 W/m² -
1788556035 27.22° C 21% 1028.2 hPa 0 mm - 797 W/m² -
1788555730 27.78° C 21% 1028.2 hPa 0 mm - 798 W/m² -
1788555426 27.22° C 22% 1028.2 hPa 0 mm - 816 W/m² -
1788555122 27.22° C 22% 1028.6 hPa 0 mm - 817 W/m² -
1788554842 27.22° C 22% 1028.2 hPa 0 mm - 817 W/m² -
1788554513 27.22° C 22% 1028.2 hPa 0 mm - 832 W/m² -
1788554209 27.78° C 21% 1028.2 hPa 0 mm - 857 W/m² -
1788553906 27.22° C 23% 1028.8 hPa 0 mm - 897 W/m² -
1788553601 26.67° C 23% 1028.6 hPa 0 mm - 940 W/m² -
1788553297 26.67° C 24% 1028.6 hPa 0 mm - 908 W/m² -
1788552992 26.67° C 24% 1028.8 hPa 0 mm - 937 W/m² -
1788552687 26.67° C 23% 1029 hPa 0 mm - 920 W/m² -
1788552386 26.67° C 24% 1028.6 hPa 0 mm - 936 W/m² -
1788552081 27.78° C 23% 1028.9 hPa 0 mm - 1040 W/m² -
1788551780 26.67° C 24% 1029.3 hPa 0 mm - 993 W/m² -
1788551474 25.56° C 25% 1029.1 hPa 0 mm - 1004 W/m² -
1788551174 23.89° C 27% 1029 hPa 0 mm - 1029 W/m² -
1788550869 23.89° C 28% 1029.1 hPa 0 mm - 164 W/m² -
1788550563 25.56° C 25% 1029.3 hPa 0 mm - 148 W/m² -
1788550260 25.56° C 25% 1028.9 hPa 0 mm - 259 W/m² -
1788549959 26.11° C 25% 1029.4 hPa 0 mm - 177 W/m² -
1788549655 25° C 27% 1029.4 hPa 0 mm - 1021 W/m² -

* Rain latest hour (hover to see other rain measurements)
** Current wind speed in m/s (hover to see current wind gust speed)